This demonstration page uses our WeatherBlox Daily Observations layout. Learn more.

Left ArrowRight Arrow

30.21309, -93.2044

Hourly Observations for August 26, 2022

Temp ( °F °C ) Dew Point ( °F °C ) Humidity (%) Winds ( mph kmh ) Pressure ( in mb ) Visibility ( mi km ) Precip ( " mm )
12:15 am 00:15 Clear 75 24.1 73 22.8 92 92 SSW 3 6 29.95 1014 10 16 0.00 0.00
12:35 am 00:35 Clear 75 24 73 22.8 93 93 SSW 3 6 29.95 1014 10 16 0.00 0.00
12:55 am 00:55 Clear 75 23.8 73 22.7 94 94 Calm 29.95 1014 10 16 0.00 0.00
1:15 am 01:15 Clear 75 24 73 22.8 93 93 Calm 29.96 1015 10 16 0.00 0.00
1:35 am 01:35 Clear 75 23.8 73 22.6 93 93 NNE 3 6 29.97 1015 10 16 0.00 0.00
1:55 am 01:55 Clear 75 23.7 73 22.6 94 94 NE 3 6 29.97 1015 10 16 0.00 0.00
2:15 am 02:15 Partly Cloudy 75 23.8 73 22.8 94 94 NE 5 7 29.97 1015 10 16 0.00 0.00
2:35 am 02:35 Partly Cloudy 75 23.7 73 22.7 94 94 NNE 3 6 29.97 1015 10 16 0.00 0.00
2:55 am 02:55 Clear 74 23.5 73 22.6 95 95 NNE 5 7 29.96 1015 10 16 0.00 0.00
3:15 am 03:15 Partly Cloudy with Nearby Thunderstorms 74 23.5 73 22.6 95 95 NNE 5 7 29.96 1015 10 16 0.00 0.00
3:35 am 03:35 Mostly Cloudy with Mist and Fog 74 23.6 73 22.7 95 95 ENE 5 7 29.96 1015 5 8 0.00 0.00
3:55 am 03:55 Cloudy with Mist and Fog 74 23.5 73 22.7 95 95 NE 5 7 29.96 1015 2 2 0.00 0.00
4:15 am 04:15 Cloudy with Nearby Thunderstorms 74 23.4 73 22.6 95 95 NNE 5 7 29.95 1014 10 16 0.00 0.00
4:35 am 04:35 Cloudy with Nearby Thunderstorms 74 23.5 73 22.7 95 95 NNE 3 6 29.96 1015 10 16 0.00 0.00
4:55 am 04:55 Cloudy with Nearby Thunderstorms 74 23.6 73 22.7 95 95 ESE 3 6 29.96 1015 10 16 0.00 0.00
5:15 am 05:15 Mostly Cloudy with Thunderstorms 74 23.5 73 22.6 95 95 SSE 3 6 29.96 1015 10 16 0.00 0.00
5:35 am 05:35 Partly Cloudy 74 23.4 73 22.5 95 95 Calm 29.96 1015 10 16 0.00 0.00
6:00 am 06:00 Mostly Cloudy with Thunderstorms 73 23 73 23 100 100 Calm 29.95 1014 10 16 0.00 0.00
6:50 am 06:50 Mostly Cloudy with Thunderstorms 73 23 73 23 100 100 NE 3 6 29.96 1015 10 16 0.00 0.00
7:50 am 07:50 Mostly Cloudy with Thunderstorms 75 24 73 23 94 94 E 5 7 29.98 1015 5 8 0.00 0.00
8:45 am 08:45 Cloudy with Mist and Fog 75 24 73 23 94 94 E 5 7 29.98 1015 3 4 0.00 0.00
9:17 am 09:17 Mostly Cloudy with Mist and Fog 75 24 73 23 94 94 E 3 6 29.98 1015 7 11 0.00 0.00
9:45 am 09:45 Mostly Cloudy with Mist and Fog 77 25 73 23 89 89 Calm 29.99 1016 7 11 0.00 0.00
10:45 am 10:45 Cloudy with Mist and Fog 79 26 75 24 89 89 ENE 5 7 29.99 1016 7 11 0.00 0.00
11:55 am 11:55 Mostly Cloudy with Mist and Fog 81 27 70 21 70 70 ESE 5 7 29.99 1016 7 11 0.00 0.00
12:45 pm 12:45 Mostly Cloudy with Mist and Fog 84 29 75 24 74 74 SE 3 6 29.98 1015 7 11 0.00 0.00
1:48 pm 13:48 Partly Cloudy 86 30 75 24 70 70 ENE 5 7 29.96 1014 7 11 0.00 0.00
2:45 pm 14:45 Partly Cloudy 88 31 75 24 66 66 Calm 29.94 1014 10 16 0.00 0.00
3:48 pm 15:48 Mostly Cloudy 88 31 77 25 71 71 SSE 17 28 29.94 1014 10 16 0.00 0.00
4:49 pm 16:49 Mostly Cloudy with Thunderstorms 81 27 73 23 79 79 W 15 24 29.97 1015 4 6 0.00 0.00
5:49 pm 17:49 Partly Cloudy with Mist and Fog 75 24 73 23 94 94 WSW 6 9 29.93 1014 7 11 0.00 0.00
6:55 pm 18:55 Mostly Sunny 79 26 73 23 84 84 ESE 6 9 29.92 1013 10 16 0.00 0.00
7:55 pm 19:55 Mostly Clear 77 25 73 23 89 89 Calm 29.92 1013 10 16 0.00 0.00
8:55 pm 20:55 Mostly Clear 75 24 73 23 94 94 Calm 29.94 1014 10 16 0.00 0.00
9:45 pm 21:45 Mostly Clear 77 25 73 23 89 89 Calm 29.94 1014 10 16 0.00 0.00
10:15 pm 22:15 Partly Cloudy 76 24.6 74 23.3 92 92 ESE 6 9 29.96 1015 10 16 0.00 0.00
10:35 pm 22:35 Partly Cloudy 76 24.5 73 23 91 91 ESE 5 7 29.96 1015 10 16 0.00 0.00
10:55 pm 22:55 Partly Cloudy 75 24.1 73 22.8 92 92 SSE 7 11 29.96 1015 10 16 0.00 0.00
11:15 pm 23:15 Clear 75 24 73 22.7 92 92 E 3 6 29.97 1015 10 16 0.00 0.00
11:35 pm 23:35 Clear 76 24.2 73 22.8 92 92 Calm 29.97 1015 10 16 0.00 0.00
11:55 pm 23:55 Clear 75 24.1 73 22.8 92 92 E 5 7 29.97 1015 10 16 0.00 0.00

Powered by AerisWeather